owner,sensor,date,latitude,longitude,vertical_datum,mass_concentration_of_oxygen_in_sea_water,qcFlag 
DISL,ioos:station:DISL:BSCA:1,2018-12-01T00:00:00Z,30.3288,-87.8293,1.693,10.38,1111122 
DISL,ioos:station:DISL:BSCA:1,2018-12-01T06:00:00Z,30.3288,-87.8293,1.921,10.61,1111122 
DISL,ioos:station:DISL:BSCA:1,2018-12-01T06:30:00Z,30.3288,-87.8293,1.932,10.43,1111122 
DISL,ioos:station:DISL:BSCA:1,2018-12-02T06:00:00Z,30.3288,-87.8293,2.029,8.78,1111122 
DISL,ioos:station:DISL:BSCA:1,2018-12-02T07:00:00Z,30.3288,-87.8293,2.0,7.83,1111122 
DISL,ioos:station:DISL:BSCA:1,2018-12-02T08:00:00Z,30.3288,-87.8293,1.999,7.96,1111122 
DISL,ioos:station:DISL:BSCA:1,2018-12-02T08:30:00Z,30.3288,-87.8293,2.049,7.88,1111122 
DISL,ioos:station:DISL:BSCA:1,2018-12-02T10:00:00Z,30.3288,-87.8293,2.008,8.75,1111122 
DISL,ioos:station:DISL:BSCA:1,2018-12-02T11:00:00Z,30.3288,-87.8293,2.008,8.28,1111122 
DISL,ioos:station:DISL:BSCA:1,2018-12-02T12:00:00Z,30.3288,-87.8293,1.959,8.5,1111122 
DISL,ioos:station:DISL:BSCA:1,2018-12-02T13:00:00Z,30.3288,-87.8293,1.92,7.95,1111122 
DISL,ioos:station:DISL:BSCA:1,2018-12-02T14:00:00Z,30.3288,-87.8293,1.917,8.16,1111122 
DISL,ioos:station:DISL:BSCA:1,2018-12-02T15:00:00Z,30.3288,-87.8293,1.91,7.81,1111122 
DISL,ioos:station:DISL:BSCA:1,2018-12-02T16:00:00Z,30.3288,-87.8293,1.905,8.1,1111122 
DISL,ioos:station:DISL:BSCA:1,2018-12-02T17:00:00Z,30.3288,-87.8293,1.887,8.18,1111122 
DISL,ioos:station:DISL:BSCA:1,2018-12-02T18:00:00Z,30.3288,-87.8293,1.867,8.57,1111122 
DISL,ioos:station:DISL:BSCA:1,2018-12-02T19:00:00Z,30.3288,-87.8293,1.873,9.19,1111122 
DISL,ioos:station:DISL:BSCA:1,2018-12-02T20:00:00Z,30.3288,-87.8293,1.886,8.83,1111122 
DISL,ioos:station:DISL:BSCA:1,2018-12-02T21:00:00Z,30.3288,-87.8293,1.908,9.02,1111122 
DISL,ioos:station:DISL:BSCA:1,2018-12-02T22:00:00Z,30.3288,-87.8293,1.942,8.59,1111122 
DISL,ioos:station:DISL:BSCA:1,2018-12-02T23:00:00Z,30.3288,-87.8293,1.97,8.58,1111122 
DISL,ioos:station:DISL:BSCA:1,2018-12-03T00:00:00Z,30.3288,-87.8293,1.993,8.59,1111122 
DISL,ioos:station:DISL:BSCA:1,2018-12-03T01:00:00Z,30.3288,-87.8293,2.004,7.05,1111122 
DISL,ioos:station:DISL:BSCA:1,2018-12-03T02:00:00Z,30.3288,-87.8293,2.017,6.19,1111122 
DISL,ioos:station:DISL:BSCA:1,2018-12-03T03:00:00Z,30.3288,-87.8293,2.029,8.01,1111122 
DISL,ioos:station:DISL:BSCA:1,2018-12-03T04:00:00Z,30.3288,-87.8293,2.011,5.09,1111122 
DISL,ioos:station:DISL:BSCA:1,2018-12-03T05:00:00Z,30.3288,-87.8293,1.973,6.72,1111122 
DISL,ioos:station:DISL:BSCA:1,2018-12-03T06:00:00Z,30.3288,-87.8293,1.922,5.94,1111122 
DISL,ioos:station:DISL:BSCA:1,2018-12-03T07:00:00Z,30.3288,-87.8293,1.86,5.07,1111122 
DISL,ioos:station:DISL:BSCA:1,2018-12-03T08:00:00Z,30.3288,-87.8293,1.815,7.36,1111122 
DISL,ioos:station:DISL:BSCA:1,2018-12-03T09:00:00Z,30.3288,-87.8293,1.775,7.35,1111122 
DISL,ioos:station:DISL:BSCA:1,2018-12-03T10:00:00Z,30.3288,-87.8293,1.739,6.79,1111122 
DISL,ioos:station:DISL:BSCA:1,2018-12-03T11:00:00Z,30.3288,-87.8293,1.734,7.79,1111122 
DISL,ioos:station:DISL:BSCA:1,2018-12-03T12:00:00Z,30.3288,-87.8293,1.738,7.81,1111122 
DISL,ioos:station:DISL:BSCA:1,2018-12-03T13:00:00Z,30.3288,-87.8293,1.734,6.4,1111122 
DISL,ioos:station:DISL:BSCA:1,2018-12-03T14:00:00Z,30.3288,-87.8293,1.75,7.81,1111122 
DISL,ioos:station:DISL:BSCA:1,2018-12-03T15:00:00Z,30.3288,-87.8293,1.755,7.84,1111122 
DISL,ioos:station:DISL:BSCA:1,2018-12-03T16:00:00Z,30.3288,-87.8293,1.793,7.76,1111122 
DISL,ioos:station:DISL:BSCA:1,2018-12-03T17:00:00Z,30.3288,-87.8293,1.806,7.67,1111122 
DISL,ioos:station:DISL:BSCA:1,2018-12-03T18:30:00Z,30.3288,-87.8293,1.767,7.62,1111122 
DISL,ioos:station:DISL:BSCA:1,2018-12-03T19:30:00Z,30.3288,-87.8293,1.779,7.13,1111122 
DISL,ioos:station:DISL:BSCA:1,2018-12-03T20:30:00Z,30.3288,-87.8293,1.83,7.35,1111122 
DISL,ioos:station:DISL:BSCA:1,2018-12-03T21:30:00Z,30.3288,-87.8293,1.873,7.24,1111122 
DISL,ioos:station:DISL:BSCA:1,2018-12-03T22:30:00Z,30.3288,-87.8293,1.899,7.0,1111122 
DISL,ioos:station:DISL:BSCA:1,2018-12-03T23:30:00Z,30.3288,-87.8293,1.939,6.67,1111122 
DISL,ioos:station:DISL:BSCA:1,2018-12-04T00:30:00Z,30.3288,-87.8293,1.941,6.44,1111122 
DISL,ioos:station:DISL:BSCA:1,2018-12-04T01:30:00Z,30.3288,-87.8293,1.933,6.66,1111122 
DISL,ioos:station:DISL:BSCA:1,2018-12-04T02:30:00Z,30.3288,-87.8293,1.935,6.26,1111122 
DISL,ioos:station:DISL:BSCA:1,2018-12-04T03:30:00Z,30.3288,-87.8293,1.923,6.21,1111122 
DISL,ioos:station:DISL:BSCA:1,2018-12-04T04:30:00Z,30.3288,-87.8293,1.867,6.38,1111122 
DISL,ioos:station:DISL:BSCA:1,2018-12-04T05:30:00Z,30.3288,-87.8293,1.804,7.17,1111122 
DISL,ioos:station:DISL:BSCA:1,2018-12-04T06:30:00Z,30.3288,-87.8293,1.748,7.56,1111122 
DISL,ioos:station:DISL:BSCA:1,2018-12-04T07:30:00Z,30.3288,-87.8293,1.675,7.64,1111122 
DISL,ioos:station:DISL:BSCA:1,2018-12-04T08:30:00Z,30.3288,-87.8293,1.603,7.96,1111122 
DISL,ioos:station:DISL:BSCA:1,2018-12-04T09:30:00Z,30.3288,-87.8293,1.529,7.37,1111122 
DISL,ioos:station:DISL:BSCA:1,2018-12-04T10:30:00Z,30.3288,-87.8293,1.494,7.07,1111122 
DISL,ioos:station:DISL:BSCA:1,2018-12-04T11:30:00Z,30.3288,-87.8293,1.483,7.14,1111122 
DISL,ioos:station:DISL:BSCA:1,2018-12-04T12:30:00Z,30.3288,-87.8293,1.476,7.29,1111122 
DISL,ioos:station:DISL:BSCA:1,2018-12-04T13:30:00Z,30.3288,-87.8293,1.448,7.31,1111122 
DISL,ioos:station:DISL:BSCA:1,2018-12-04T14:30:00Z,30.3288,-87.8293,1.438,7.61,1111122 
DISL,ioos:station:DISL:BSCA:1,2018-12-04T15:30:00Z,30.3288,-87.8293,1.454,7.95,1111122 
DISL,ioos:station:DISL:BSCA:1,2018-12-04T16:30:00Z,30.3288,-87.8293,1.522,8.17,1111122 
DISL,ioos:station:DISL:BSCA:1,2018-12-04T17:30:00Z,30.3288,-87.8293,1.593,8.42,1111122 
DISL,ioos:station:DISL:BSCA:1,2018-12-04T18:30:00Z,30.3288,-87.8293,1.645,8.8,1111122 
DISL,ioos:station:DISL:BSCA:1,2018-12-04T19:00:00Z,30.3288,-87.8293,1.657,8.95,1111122 
DISL,ioos:station:DISL:BSCA:1,2018-12-07T20:30:00Z,30.3288,-87.8293,1.542,10.5,1111122 
DISL,ioos:station:DISL:BSCA:1,2018-12-07T21:30:00Z,30.3288,-87.8293,1.611,10.09,1111122 
DISL,ioos:station:DISL:BSCA:1,2018-12-07T22:30:00Z,30.3288,-87.8293,1.691,9.6,1111122 
DISL,ioos:station:DISL:BSCA:1,2018-12-07T23:30:00Z,30.3288,-87.8293,1.773,9.88,1111122 
DISL,ioos:station:DISL:BSCA:1,2018-12-08T06:30:00Z,30.3288,-87.8293,1.972,7.39,1111122 
DISL,ioos:station:DISL:BSCA:1,2018-12-08T07:30:00Z,30.3288,-87.8293,1.903,6.77,1111122 
DISL,ioos:station:DISL:BSCA:1,2018-12-08T08:00:00Z,30.3288,-87.8293,1.87,7.97,1111122 
DISL,ioos:station:DISL:BSCA:1,2018-12-08T09:30:00Z,30.3288,-87.8293,1.774,7.95,1111122 
DISL,ioos:station:DISL:BSCA:1,2018-12-08T10:30:00Z,30.3288,-87.8293,1.674,6.57,1111122 
DISL,ioos:station:DISL:BSCA:1,2018-12-08T11:30:00Z,30.3288,-87.8293,1.563,7.98,1111122 
DISL,ioos:station:DISL:BSCA:1,2018-12-08T12:30:00Z,30.3288,-87.8293,1.49,8.65,1111122 
DISL,ioos:station:DISL:BSCA:1,2018-12-08T13:30:00Z,30.3288,-87.8293,1.463,8.63,1111122 
DISL,ioos:station:DISL:BSCA:1,2018-12-08T14:30:00Z,30.3288,-87.8293,1.443,8.8,1111122 
DISL,ioos:station:DISL:BSCA:1,2018-12-08T15:30:00Z,30.3288,-87.8293,1.441,8.72,1111122 
DISL,ioos:station:DISL:BSCA:1,2018-12-08T16:30:00Z,30.3288,-87.8293,1.49,8.64,1111122 
DISL,ioos:station:DISL:BSCA:1,2018-12-08T17:30:00Z,30.3288,-87.8293,1.627,7.3,1111122 
DISL,ioos:station:DISL:BSCA:1,2018-12-08T18:30:00Z,30.3288,-87.8293,1.708,7.08,1111122 
DISL,ioos:station:DISL:BSCA:1,2018-12-08T19:30:00Z,30.3288,-87.8293,1.771,6.6,1111122 
DISL,ioos:station:DISL:BSCA:1,2018-12-08T20:30:00Z,30.3288,-87.8293,1.84,7.99,1111122 
DISL,ioos:station:DISL:BSCA:1,2018-12-08T21:30:00Z,30.3288,-87.8293,1.923,7.23,1111122 
DISL,ioos:station:DISL:BSCA:1,2018-12-08T22:30:00Z,30.3288,-87.8293,1.937,8.04,1111122 
DISL,ioos:station:DISL:BSCA:1,2018-12-08T23:30:00Z,30.3288,-87.8293,1.952,7.89,1111122 
DISL,ioos:station:DISL:BSCA:1,2018-12-09T00:30:00Z,30.3288,-87.8293,2.068,8.05,1111122 
DISL,ioos:station:DISL:BSCA:1,2018-12-09T01:30:00Z,30.3288,-87.8293,2.323,8.05,1111122 
DISL,ioos:station:DISL:BSCA:1,2018-12-09T02:30:00Z,30.3288,-87.8293,2.393,7.64,1111122 
DISL,ioos:station:DISL:BSCA:1,2018-12-09T03:30:00Z,30.3288,-87.8293,2.379,7.78,1111122 
DISL,ioos:station:DISL:BSCA:1,2018-12-09T04:30:00Z,30.3288,-87.8293,2.282,7.81,1111122 
DISL,ioos:station:DISL:BSCA:1,2018-12-09T05:30:00Z,30.3288,-87.8293,2.169,7.49,1111122 
DISL,ioos:station:DISL:BSCA:1,2018-12-09T06:30:00Z,30.3288,-87.8293,2.122,7.58,1111122 
DISL,ioos:station:DISL:BSCA:1,2018-12-09T07:30:00Z,30.3288,-87.8293,2.105,7.52,1111122 
DISL,ioos:station:DISL:BSCA:1,2018-12-09T08:30:00Z,30.3288,-87.8293,2.082,7.88,1111122 
DISL,ioos:station:DISL:BSCA:1,2018-12-09T09:30:00Z,30.3288,-87.8293,2.043,8.1,1111122 
DISL,ioos:station:DISL:BSCA:1,2018-12-09T10:30:00Z,30.3288,-87.8293,1.938,8.21,1111122 
DISL,ioos:station:DISL:BSCA:1,2018-12-09T11:30:00Z,30.3288,-87.8293,1.856,8.2,1111122 
DISL,ioos:station:DISL:BSCA:1,2018-12-09T12:30:00Z,30.3288,-87.8293,1.797,8.21,1111122 
DISL,ioos:station:DISL:BSCA:1,2018-12-09T13:30:00Z,30.3288,-87.8293,1.715,8.06,1111122 
DISL,ioos:station:DISL:BSCA:1,2018-12-09T14:30:00Z,30.3288,-87.8293,1.632,8.2,1111122 
DISL,ioos:station:DISL:BSCA:1,2018-12-09T15:30:00Z,30.3288,-87.8293,1.594,8.25,1111122 
DISL,ioos:station:DISL:BSCA:1,2018-12-09T16:30:00Z,30.3288,-87.8293,1.558,8.58,1111122 
DISL,ioos:station:DISL:BSCA:1,2018-12-09T17:30:00Z,30.3288,-87.8293,1.573,8.65,1111122 
DISL,ioos:station:DISL:BSCA:1,2018-12-09T18:30:00Z,30.3288,-87.8293,1.624,8.84,1111122 
DISL,ioos:station:DISL:BSCA:1,2018-12-09T19:30:00Z,30.3288,-87.8293,1.652,9.06,1111122 
DISL,ioos:station:DISL:BSCA:1,2018-12-09T20:30:00Z,30.3288,-87.8293,1.629,9.15,1111122 
DISL,ioos:station:DISL:BSCA:1,2018-12-09T21:30:00Z,30.3288,-87.8293,1.705,9.07,1111122 
DISL,ioos:station:DISL:BSCA:1,2018-12-09T22:30:00Z,30.3288,-87.8293,1.764,8.9,1111122 
DISL,ioos:station:DISL:BSCA:1,2018-12-09T23:30:00Z,30.3288,-87.8293,1.82,8.84,1111122 
DISL,ioos:station:DISL:BSCA:1,2018-12-10T06:30:00Z,30.3288,-87.8293,1.997,8.63,1111122 
DISL,ioos:station:DISL:BSCA:1,2018-12-10T07:30:00Z,30.3288,-87.8293,1.965,8.52,1111122 
DISL,ioos:station:DISL:BSCA:1,2018-12-10T08:30:00Z,30.3288,-87.8293,1.88,8.58,1111122 
DISL,ioos:station:DISL:BSCA:1,2018-12-10T09:30:00Z,30.3288,-87.8293,1.813,8.74,1111122 
DISL,ioos:station:DISL:BSCA:1,2018-12-10T10:30:00Z,30.3288,-87.8293,1.744,8.81,1111122 
DISL,ioos:station:DISL:BSCA:1,2018-12-10T11:30:00Z,30.3288,-87.8293,1.667,8.91,1111122 
DISL,ioos:station:DISL:BSCA:1,2018-12-10T12:30:00Z,30.3288,-87.8293,1.601,8.94,1111122 
DISL,ioos:station:DISL:BSCA:1,2018-12-10T13:30:00Z,30.3288,-87.8293,1.529,8.95,1111122 
DISL,ioos:station:DISL:BSCA:1,2018-12-10T14:30:00Z,30.3288,-87.8293,1.477,8.99,1111122 
DISL,ioos:station:DISL:BSCA:1,2018-12-10T15:30:00Z,30.3288,-87.8293,1.4,9.06,1111122 
DISL,ioos:station:DISL:BSCA:1,2018-12-10T16:30:00Z,30.3288,-87.8293,1.335,9.17,1111122 
DISL,ioos:station:DISL:BSCA:1,2018-12-10T17:30:00Z,30.3288,-87.8293,1.353,9.21,1111122 
DISL,ioos:station:DISL:BSCA:1,2018-12-10T18:30:00Z,30.3288,-87.8293,1.357,9.39,1111122 
DISL,ioos:station:DISL:BSCA:1,2018-12-10T19:30:00Z,30.3288,-87.8293,1.375,9.38,1111122 
DISL,ioos:station:DISL:BSCA:1,2018-12-10T20:30:00Z,30.3288,-87.8293,1.448,9.5,1111122 
DISL,ioos:station:DISL:BSCA:1,2018-12-10T21:30:00Z,30.3288,-87.8293,1.473,9.44,1111122 
DISL,ioos:station:DISL:BSCA:1,2018-12-10T22:30:00Z,30.3288,-87.8293,1.501,9.34,1111122 
DISL,ioos:station:DISL:BSCA:1,2018-12-10T23:30:00Z,30.3288,-87.8293,1.558,9.61,1111122 
DISL,ioos:station:DISL:BSCA:1,2018-12-11T00:30:00Z,30.3288,-87.8293,1.634,9.54,1111122 
DISL,ioos:station:DISL:BSCA:1,2018-12-11T01:30:00Z,30.3288,-87.8293,1.717,9.55,1111122 
DISL,ioos:station:DISL:BSCA:1,2018-12-11T02:30:00Z,30.3288,-87.8293,1.756,9.53,1111122 
DISL,ioos:station:DISL:BSCA:1,2018-12-11T03:30:00Z,30.3288,-87.8293,1.808,9.45,1111122 
DISL,ioos:station:DISL:BSCA:1,2018-12-11T04:30:00Z,30.3288,-87.8293,1.83,9.38,1111122 
DISL,ioos:station:DISL:BSCA:1,2018-12-11T05:30:00Z,30.3288,-87.8293,1.842,9.19,1111122 
DISL,ioos:station:DISL:BSCA:1,2018-12-11T06:30:00Z,30.3288,-87.8293,1.846,9.18,1111122 
DISL,ioos:station:DISL:BSCA:1,2018-12-11T07:30:00Z,30.3288,-87.8293,1.8,9.1,1111122 
DISL,ioos:station:DISL:BSCA:1,2018-12-11T08:30:00Z,30.3288,-87.8293,1.699,9.4,1111122 
DISL,ioos:station:DISL:BSCA:1,2018-12-11T09:30:00Z,30.3288,-87.8293,1.609,9.02,1111122 
DISL,ioos:station:DISL:BSCA:1,2018-12-11T10:30:00Z,30.3288,-87.8293,1.551,8.92,1111122 
DISL,ioos:station:DISL:BSCA:1,2018-12-11T11:30:00Z,30.3288,-87.8293,1.49,8.96,1111122 
DISL,ioos:station:DISL:BSCA:1,2018-12-11T12:30:00Z,30.3288,-87.8293,1.436,8.88,1111122 
DISL,ioos:station:DISL:BSCA:1,2018-12-11T13:30:00Z,30.3288,-87.8293,1.399,8.97,1111122 
DISL,ioos:station:DISL:BSCA:1,2018-12-11T14:30:00Z,30.3288,-87.8293,1.342,9.16,1111122 
DISL,ioos:station:DISL:BSCA:1,2018-12-11T15:30:00Z,30.3288,-87.8293,1.274,9.35,1111122 
DISL,ioos:station:DISL:BSCA:1,2018-12-11T16:30:00Z,30.3288,-87.8293,1.252,9.42,1111122 
DISL,ioos:station:DISL:BSCA:1,2018-12-11T17:30:00Z,30.3288,-87.8293,1.246,9.62,1111122 
DISL,ioos:station:DISL:BSCA:1,2018-12-11T18:30:00Z,30.3288,-87.8293,1.264,10.07,1111122 
DISL,ioos:station:DISL:BSCA:1,2018-12-11T19:30:00Z,30.3288,-87.8293,1.296,10.31,1111122 
DISL,ioos:station:DISL:BSCA:1,2018-12-11T20:30:00Z,30.3288,-87.8293,1.337,10.36,1111122 
DISL,ioos:station:DISL:BSCA:1,2018-12-11T22:30:00Z,30.3288,-87.8293,1.436,10.36,1111122 
DISL,ioos:station:DISL:BSCA:1,2018-12-11T23:30:00Z,30.3288,-87.8293,1.485,10.11,1111122 
DISL,ioos:station:DISL:BSCA:1,2018-12-12T00:30:00Z,30.3288,-87.8293,1.532,10.33,1111122 
DISL,ioos:station:DISL:BSCA:1,2018-12-12T01:30:00Z,30.3288,-87.8293,1.596,10.36,1111122 
DISL,ioos:station:DISL:BSCA:1,2018-12-12T02:30:00Z,30.3288,-87.8293,1.651,10.54,1111122 
DISL,ioos:station:DISL:BSCA:1,2018-12-12T03:30:00Z,30.3288,-87.8293,1.723,10.73,1111122 
DISL,ioos:station:DISL:BSCA:1,2018-12-12T04:30:00Z,30.3288,-87.8293,1.76,10.38,1111122 
DISL,ioos:station:DISL:BSCA:1,2018-12-12T05:30:00Z,30.3288,-87.8293,1.788,10.37,1111122 
DISL,ioos:station:DISL:BSCA:1,2018-12-12T06:30:00Z,30.3288,-87.8293,1.799,10.27,1111122 
DISL,ioos:station:DISL:BSCA:1,2018-12-12T07:30:00Z,30.3288,-87.8293,1.787,10.18,1111122 
DISL,ioos:station:DISL:BSCA:1,2018-12-12T08:30:00Z,30.3288,-87.8293,1.757,9.93,1111122 
DISL,ioos:station:DISL:BSCA:1,2018-12-12T09:30:00Z,30.3288,-87.8293,1.706,9.87,1111122 
DISL,ioos:station:DISL:BSCA:1,2018-12-12T10:30:00Z,30.3288,-87.8293,1.64,9.89,1111122 
DISL,ioos:station:DISL:BSCA:1,2018-12-12T11:30:00Z,30.3288,-87.8293,1.565,9.14,1111122 
DISL,ioos:station:DISL:BSCA:1,2018-12-12T12:30:00Z,30.3288,-87.8293,1.503,8.39,1111122 
DISL,ioos:station:DISL:BSCA:1,2018-12-12T13:30:00Z,30.3288,-87.8293,1.478,10.04,1111122 
DISL,ioos:station:DISL:BSCA:1,2018-12-12T14:30:00Z,30.3288,-87.8293,1.427,9.41,1111122 
DISL,ioos:station:DISL:BSCA:1,2018-12-12T16:30:00Z,30.3288,-87.8293,1.331,10.01,1111122 
DISL,ioos:station:DISL:BSCA:1,2018-12-12T17:30:00Z,30.3288,-87.8293,1.328,9.73,1111122 
DISL,ioos:station:DISL:BSCA:1,2018-12-12T18:30:00Z,30.3288,-87.8293,1.36,9.94,1111122 
DISL,ioos:station:DISL:BSCA:1,2018-12-12T19:30:00Z,30.3288,-87.8293,1.415,11.76,1111122 
DISL,ioos:station:DISL:BSCA:1,2018-12-12T20:30:00Z,30.3288,-87.8293,1.478,11.44,1111122 
DISL,ioos:station:DISL:BSCA:1,2018-12-12T21:30:00Z,30.3288,-87.8293,1.508,12.04,1111122 
DISL,ioos:station:DISL:BSCA:1,2018-12-12T22:30:00Z,30.3288,-87.8293,1.554,11.99,1111122 
DISL,ioos:station:DISL:BSCA:1,2018-12-12T23:30:00Z,30.3288,-87.8293,1.639,10.1,1111122 
DISL,ioos:station:DISL:BSCA:1,2018-12-13T00:30:00Z,30.3288,-87.8293,1.705,9.57,1111122 
DISL,ioos:station:DISL:BSCA:1,2018-12-13T01:30:00Z,30.3288,-87.8293,1.763,9.43,1111122 
DISL,ioos:station:DISL:BSCA:1,2018-12-13T02:30:00Z,30.3288,-87.8293,1.828,9.36,1111122 
DISL,ioos:station:DISL:BSCA:1,2018-12-13T03:30:00Z,30.3288,-87.8293,1.865,9.55,1111122 
DISL,ioos:station:DISL:BSCA:1,2018-12-13T04:30:00Z,30.3288,-87.8293,1.899,9.5,1111122 
DISL,ioos:station:DISL:BSCA:1,2018-12-13T05:30:00Z,30.3288,-87.8293,1.967,9.33,1111122 
DISL,ioos:station:DISL:BSCA:1,2018-12-13T06:30:00Z,30.3288,-87.8293,1.956,8.79,1111122 
DISL,ioos:station:DISL:BSCA:1,2018-12-13T07:30:00Z,30.3288,-87.8293,1.951,8.19,1111122 
DISL,ioos:station:DISL:BSCA:1,2018-12-13T08:30:00Z,30.3288,-87.8293,1.887,8.2,1111122 
DISL,ioos:station:DISL:BSCA:1,2018-12-13T09:30:00Z,30.3288,-87.8293,1.827,9.28,1111122 
DISL,ioos:station:DISL:BSCA:1,2018-12-13T10:30:00Z,30.3288,-87.8293,1.77,11.07,1111122 
DISL,ioos:station:DISL:BSCA:1,2018-12-13T11:30:00Z,30.3288,-87.8293,1.695,8.54,1111122 
DISL,ioos:station:DISL:BSCA:1,2018-12-13T12:30:00Z,30.3288,-87.8293,1.639,10.32,1111122 
DISL,ioos:station:DISL:BSCA:1,2018-12-13T13:30:00Z,30.3288,-87.8293,1.589,10.28,1111122 
DISL,ioos:station:DISL:BSCA:1,2018-12-13T14:30:00Z,30.3288,-87.8293,1.59,10.3,1111122 
DISL,ioos:station:DISL:BSCA:1,2018-12-13T15:30:00Z,30.3288,-87.8293,1.595,10.04,1111122 
DISL,ioos:station:DISL:BSCA:1,2018-12-13T16:30:00Z,30.3288,-87.8293,1.563,10.27,1111122 
DISL,ioos:station:DISL:BSCA:1,2018-12-13T17:30:00Z,30.3288,-87.8293,1.57,10.1,1111122 
DISL,ioos:station:DISL:BSCA:1,2018-12-13T18:30:00Z,30.3288,-87.8293,1.585,10.04,1111122 
DISL,ioos:station:DISL:BSCA:1,2018-12-13T19:30:00Z,30.3288,-87.8293,1.614,10.21,1111122 
DISL,ioos:station:DISL:BSCA:1,2018-12-13T20:30:00Z,30.3288,-87.8293,1.654,10.21,1111122 
DISL,ioos:station:DISL:BSCA:1,2018-12-13T21:30:00Z,30.3288,-87.8293,1.724,10.07,1111122 
DISL,ioos:station:DISL:BSCA:1,2018-12-13T22:30:00Z,30.3288,-87.8293,1.775,10.15,1111122 
DISL,ioos:station:DISL:BSCA:1,2018-12-13T23:30:00Z,30.3288,-87.8293,1.823,10.03,1111122 
DISL,ioos:station:DISL:BSCA:1,2018-12-14T00:30:00Z,30.3288,-87.8293,1.906,9.63,1111122 
DISL,ioos:station:DISL:BSCA:1,2018-12-14T01:30:00Z,30.3288,-87.8293,1.992,9.58,1111122 
DISL,ioos:station:DISL:BSCA:1,2018-12-14T02:30:00Z,30.3288,-87.8293,2.036,9.37,1111122 
DISL,ioos:station:DISL:BSCA:1,2018-12-14T03:30:00Z,30.3288,-87.8293,2.103,9.33,1111122 
DISL,ioos:station:DISL:BSCA:1,2018-12-14T04:30:00Z,30.3288,-87.8293,2.099,8.54,1111122 
DISL,ioos:station:DISL:BSCA:1,2018-12-14T05:30:00Z,30.3288,-87.8293,2.131,9.03,1111122 
DISL,ioos:station:DISL:BSCA:1,2018-12-14T06:30:00Z,30.3288,-87.8293,2.152,8.43,1111122 
DISL,ioos:station:DISL:BSCA:1,2018-12-14T07:30:00Z,30.3288,-87.8293,2.163,8.15,1111122 
DISL,ioos:station:DISL:BSCA:1,2018-12-14T08:30:00Z,30.3288,-87.8293,2.156,7.8,1111122 
DISL,ioos:station:DISL:BSCA:1,2018-12-14T09:30:00Z,30.3288,-87.8293,2.144,8.05,1111122 
DISL,ioos:station:DISL:BSCA:1,2018-12-14T10:30:00Z,30.3288,-87.8293,2.118,8.68,1111122 
DISL,ioos:station:DISL:BSCA:1,2018-12-14T11:30:00Z,30.3288,-87.8293,2.089,8.85,1111122 
DISL,ioos:station:DISL:BSCA:1,2018-12-14T12:30:00Z,30.3288,-87.8293,2.041,7.95,1111122 
DISL,ioos:station:DISL:BSCA:1,2018-12-14T13:30:00Z,30.3288,-87.8293,2.032,8.52,1111122 
DISL,ioos:station:DISL:BSCA:1,2018-12-14T14:30:00Z,30.3288,-87.8293,1.998,7.87,1111122 
DISL,ioos:station:DISL:BSCA:1,2018-12-14T15:30:00Z,30.3288,-87.8293,1.954,7.86,1111122 
DISL,ioos:station:DISL:BSCA:1,2018-12-14T16:30:00Z,30.3288,-87.8293,1.933,7.33,1111122 
DISL,ioos:station:DISL:BSCA:1,2018-12-14T17:30:00Z,30.3288,-87.8293,1.922,7.69,1111122 
DISL,ioos:station:DISL:BSCA:1,2018-12-14T18:30:00Z,30.3288,-87.8293,1.948,9.87,1111122 
DISL,ioos:station:DISL:BSCA:1,2018-12-14T19:30:00Z,30.3288,-87.8293,1.976,9.4,1111122 
DISL,ioos:station:DISL:BSCA:1,2018-12-14T20:30:00Z,30.3288,-87.8293,1.91,9.76,1111122 
DISL,ioos:station:DISL:BSCA:1,2018-12-14T21:30:00Z,30.3288,-87.8293,1.88,9.64,1111122 
DISL,ioos:station:DISL:BSCA:1,2018-12-14T22:30:00Z,30.3288,-87.8293,1.892,9.21,1111122 
DISL,ioos:station:DISL:BSCA:1,2018-12-14T23:30:00Z,30.3288,-87.8293,1.969,8.69,1111122 
DISL,ioos:station:DISL:BSCA:1,2018-12-15T00:30:00Z,30.3288,-87.8293,2.045,9.59,1111122 
DISL,ioos:station:DISL:BSCA:1,2018-12-15T01:30:00Z,30.3288,-87.8293,2.074,9.82,1111122 
DISL,ioos:station:DISL:BSCA:1,2018-12-15T02:30:00Z,30.3288,-87.8293,2.1,9.59,1111122 
DISL,ioos:station:DISL:BSCA:1,2018-12-15T03:30:00Z,30.3288,-87.8293,2.149,9.63,1111122 
DISL,ioos:station:DISL:BSCA:1,2018-12-15T04:30:00Z,30.3288,-87.8293,2.145,9.59,1111122 
DISL,ioos:station:DISL:BSCA:1,2018-12-15T05:30:00Z,30.3288,-87.8293,2.133,9.49,1111122 
DISL,ioos:station:DISL:BSCA:1,2018-12-15T06:30:00Z,30.3288,-87.8293,2.156,9.43,1111122 
DISL,ioos:station:DISL:BSCA:1,2018-12-15T07:30:00Z,30.3288,-87.8293,2.177,9.38,1111122 
DISL,ioos:station:DISL:BSCA:1,2018-12-15T08:30:00Z,30.3288,-87.8293,2.123,9.41,1111122 
DISL,ioos:station:DISL:BSCA:1,2018-12-15T09:30:00Z,30.3288,-87.8293,2.085,9.41,1111122 
DISL,ioos:station:DISL:BSCA:1,2018-12-15T10:30:00Z,30.3288,-87.8293,2.077,9.23,1111122 
DISL,ioos:station:DISL:BSCA:1,2018-12-15T11:30:00Z,30.3288,-87.8293,2.019,9.34,1111122 
DISL,ioos:station:DISL:BSCA:1,2018-12-15T12:30:00Z,30.3288,-87.8293,1.963,9.27,1111122 
DISL,ioos:station:DISL:BSCA:1,2018-12-15T13:30:00Z,30.3288,-87.8293,1.95,9.21,1111122 
DISL,ioos:station:DISL:BSCA:1,2018-12-15T14:30:00Z,30.3288,-87.8293,1.898,9.23,1111122 
DISL,ioos:station:DISL:BSCA:1,2018-12-15T15:30:00Z,30.3288,-87.8293,1.834,9.5,1111122 
DISL,ioos:station:DISL:BSCA:1,2018-12-15T16:30:00Z,30.3288,-87.8293,1.76,9.32,1111122 
DISL,ioos:station:DISL:BSCA:1,2018-12-15T17:30:00Z,30.3288,-87.8293,1.713,9.15,1111122 
DISL,ioos:station:DISL:BSCA:1,2018-12-15T18:30:00Z,30.3288,-87.8293,1.707,9.25,1111122 
DISL,ioos:station:DISL:BSCA:1,2018-12-15T19:30:00Z,30.3288,-87.8293,1.718,9.4,1111122 
DISL,ioos:station:DISL:BSCA:1,2018-12-15T20:30:00Z,30.3288,-87.8293,1.729,9.48,1111122 
DISL,ioos:station:DISL:BSCA:1,2018-12-15T21:30:00Z,30.3288,-87.8293,1.74,9.47,1111122 
DISL,ioos:station:DISL:BSCA:1,2018-12-15T22:30:00Z,30.3288,-87.8293,1.758,9.37,1111122 
DISL,ioos:station:DISL:BSCA:1,2018-12-15T23:30:00Z,30.3288,-87.8293,1.767,9.53,1111122 
DISL,ioos:station:DISL:BSCA:1,2018-12-16T00:30:00Z,30.3288,-87.8293,1.774,9.55,1111122 
DISL,ioos:station:DISL:BSCA:1,2018-12-16T01:30:00Z,30.3288,-87.8293,1.781,9.53,1111122 
DISL,ioos:station:DISL:BSCA:1,2018-12-16T02:30:00Z,30.3288,-87.8293,1.835,9.42,1111122 
DISL,ioos:station:DISL:BSCA:1,2018-12-16T03:30:00Z,30.3288,-87.8293,1.828,9.48,1111122 
DISL,ioos:station:DISL:BSCA:1,2018-12-16T04:30:00Z,30.3288,-87.8293,1.811,9.48,1111122 
DISL,ioos:station:DISL:BSCA:1,2018-12-16T05:30:00Z,30.3288,-87.8293,1.793,9.33,1111122 
DISL,ioos:station:DISL:BSCA:1,2018-12-16T06:30:00Z,30.3288,-87.8293,1.765,9.17,1111122 
DISL,ioos:station:DISL:BSCA:1,2018-12-16T07:30:00Z,30.3288,-87.8293,1.747,9.08,1111122 
DISL,ioos:station:DISL:BSCA:1,2018-12-16T08:30:00Z,30.3288,-87.8293,1.727,9.13,1111122 
DISL,ioos:station:DISL:BSCA:1,2018-12-16T09:30:00Z,30.3288,-87.8293,1.709,9.09,1111122 
DISL,ioos:station:DISL:BSCA:1,2018-12-16T10:30:00Z,30.3288,-87.8293,1.66,9.09,1111122 
DISL,ioos:station:DISL:BSCA:1,2018-12-16T11:30:00Z,30.3288,-87.8293,1.618,9.01,1111122 
DISL,ioos:station:DISL:BSCA:1,2018-12-16T12:30:00Z,30.3288,-87.8293,1.619,8.86,1111122 
DISL,ioos:station:DISL:BSCA:1,2018-12-16T13:30:00Z,30.3288,-87.8293,1.623,9.25,1111122 
DISL,ioos:station:DISL:BSCA:1,2018-12-16T14:30:00Z,30.3288,-87.8293,1.596,8.81,1111122 
DISL,ioos:station:DISL:BSCA:1,2018-12-16T15:30:00Z,30.3288,-87.8293,1.576,8.9,1111122 
DISL,ioos:station:DISL:BSCA:1,2018-12-16T16:30:00Z,30.3288,-87.8293,1.596,8.75,1111122 
DISL,ioos:station:DISL:BSCA:1,2018-12-16T17:30:00Z,30.3288,-87.8293,1.593,8.64,1111122 
DISL,ioos:station:DISL:BSCA:1,2018-12-16T18:30:00Z,30.3288,-87.8293,1.572,8.65,1111122 
DISL,ioos:station:DISL:BSCA:1,2018-12-16T19:30:00Z,30.3288,-87.8293,1.563,8.71,1111122 
DISL,ioos:station:DISL:BSCA:1,2018-12-16T20:30:00Z,30.3288,-87.8293,1.575,9.25,1111122 
DISL,ioos:station:DISL:BSCA:1,2018-12-16T21:30:00Z,30.3288,-87.8293,1.614,8.65,1111122 
DISL,ioos:station:DISL:BSCA:1,2018-12-16T22:30:00Z,30.3288,-87.8293,1.649,8.46,1111122 
DISL,ioos:station:DISL:BSCA:1,2018-12-16T23:30:00Z,30.3288,-87.8293,1.652,8.37,1111122 